CDT,Max TemperatureF,Mean TemperatureF,Min TemperatureF,Max Dew PointF,MeanDew PointF,Min DewpointF,Max Humidity, Mean Humidity, Min Humidity, Max Sea Level PressureIn, Mean Sea Level PressureIn, Min Sea Level PressureIn, Max VisibilityMiles, Mean VisibilityMiles, Min VisibilityMiles, Max Wind SpeedMPH, Mean Wind SpeedMPH, Max Gust SpeedMPH,PrecipitationIn, CloudCover, Events, WindDirDegrees
2013-10-1,75,62,48,52,42,30,77,46,19,30.01,29.83,29.60,10,10,10,20,12,26,0.00,0,,281
2013-10-2,78,60,42,63,45,36,100,61,25,30.03,29.94,29.79,10,10,3,21,6,30,1.17,2,Rain-Thunderstorm,134
2013-10-3,66,60,55,63,59,55,100,98,88,29.93,29.85,29.81,10,7,1,13,4,16,0.00,5,Rain-Thunderstorm,45
2013-10-4,57,55,53,57,56,54,100,100,100,29.95,29.88,29.76,10,6,2,20,11,26,0.50,7,Rain-Thunderstorm,65
2013-10-5,60,51,42,61,44,37,100,79,54,29.85,29.78,29.74,10,10,7,17,8,24,0.00,4,,168
2013-10-6,51,45,39,52,46,39,100,98,87,29.89,29.77,29.71,10,8,0,21,6,28,0.12,5,Fog-Rain,307
2013-10-7,66,52,39,46,42,39,100,72,37,29.99,29.94,29.87,10,9,4,9,5,,0.00,0,,237
2013-10-8,78,63,48,48,45,43,93,58,32,29.95,29.86,29.78,10,9,4,25,13,33,0.00,0,,176
2013-10-9,75,64,53,52,48,45,82,61,38,30.02,29.98,29.91,10,10,10,16,12,22,0.00,0,,170
2013-10-10,78,64,51,55,49,46,82,62,36,30.02,29.92,29.82,10,10,10,24,11,29,0.00,0,,158
2013-10-11,71,61,51,61,54,45,88,74,59,29.82,29.70,29.58,10,10,1,30,15,45,0.08,1,Rain-Thunderstorm,161
2013-10-12,60,50,39,45,38,32,87,66,36,30.22,29.96,29.75,10,10,10,26,13,38,0.00,1,,256
2013-10-13,60,45,30,37,33,28,100,66,34,30.44,30.36,30.23,10,10,10,8,5,,0.00,0,,282
2013-10-14,53,48,42,48,40,36,100,75,54,30.37,30.16,29.80,10,10,7,21,7,26,0.90,3,Rain-Thunderstorm,107
2013-10-15,53,48,44,54,49,45,100,99,94,29.88,29.72,29.63,10,7,2,20,13,30,0.08,7,Rain,223
2013-10-16,53,45,37,45,40,30,100,83,41,29.99,29.93,29.88,10,10,5,15,11,21,0.00,4,Rain,297
2013-10-17,55,45,35,45,39,34,100,88,58,29.92,29.85,29.80,10,10,5,20,7,28,0.02,3,Rain,283
2013-10-18,51,42,32,39,34,28,100,76,43,30.02,29.95,29.87,10,10,7,17,11,23,0.00,3,Rain,282
2013-10-19,46,37,28,41,32,25,100,83,53,29.86,29.78,29.72,10,10,7,24,8,30,0.04,2,Rain,269
2013-10-20,50,40,30,45,35,27,100,87,71,29.94,29.74,29.61,10,10,5,25,8,32,0.01,6,Rain-Snow,239
2013-10-21,41,34,24,28,25,21,93,72,49,30.00,29.97,29.94,10,10,10,20,9,25,0.00,4,,300
2013-10-22,39,30,21,30,26,21,100,80,61,30.06,30.01,29.96,10,10,10,14,4,17,0.00,6,,324
2013-10-23,39,32,26,30,25,21,100,75,52,30.13,30.06,30.02,10,10,10,18,7,25,0.00,7,,305
2013-10-24,46,35,24,32,27,19,100,77,53,30.34,30.25,30.13,10,10,10,14,9,22,0.00,3,,305
2013-10-25,60,40,21,39,32,19,100,74,45,30.34,30.09,29.83,10,10,10,26,10,32,0.00,0,,222
2013-10-26,48,38,28,39,30,25,93,68,50,30.13,30.05,29.86,10,10,10,23,15,32,0.00,0,,309
2013-10-27,59,42,26,37,30,25,93,67,41,30.10,29.92,29.80,10,10,10,14,7,22,0.00,0,,233
2013-10-28,42,36,30,28,26,21,93,67,49,30.39,30.32,30.12,10,10,10,17,10,24,0.00,0,,55
2013-10-29,44,38,33,37,31,21,93,75,60,30.37,30.20,30.06,10,10,10,12,7,,0.01,5,Rain-Snow,72
2013-10-30,50,44,39,50,45,37,100,99,93,30.04,29.87,29.69,10,3,0,12,5,18,0.05,6,Fog-Rain,76
2013-10-31,44,40,37,45,39,37,100,97,93,29.69,29.53,29.44,10,8,2,15,10,17,0.01,4,Rain,286